Meteo Giornale » Osservazioni meteo Francia » Rouen
ore: 17:00 - Osservazioni Meteo Rouen
Lat. 49° 23' N Lon. 1° 11' E Alt. 157 metri s.l.m.
21 °C
Molto Nuvoloso
Temp. 24 Ore
15 °C
21 °C
Ovest
27.8 Km/h
Dew point 12 °C
Umidità 56 %
Visibilità 10 Km
Il sole sorge alle ore 07:09
Il sole tramonta alle ore 20:41
| Data e Ora | Cielo e Fenomeni | T °C | DP °C | Um. % | Pres. hPa | Vis. km | Vento km/h | |
|---|---|---|---|---|---|---|---|---|
| Oggi h: 17:00 | Molto Nuvoloso | 21 | 12 | 56 | 1018 | 10 | O 27.8 | |
| Oggi h: 16:30 | Poco Nuvoloso | 21 | 12 | 56 | 1017 | 10 | O 24 | |
| Oggi h: 16:00 | Sereno | 21 | 12 | 56 | 1017 | 10 | O 31.5 | |
| Oggi h: 15:30 | Poco Nuvoloso | 21 | 12 | 56 | 1017 | 10 | O 31.5 | |
| Oggi h: 15:00 | Molto Nuvoloso | 20 | 15 | 72 | 1017 | 10 | O 24 | |
| Oggi h: 14:30 | Molto Nuvoloso | 19 | 14 | 72 | 1016 | 10 | O/NO 27.8 | |
| Oggi h: 14:00 | Sereno | 20 | 15 | 72 | 1016 | 10 | O/SO 22.2 | |
| Oggi h: 13:30 | Molto Nuvoloso | 19 | 16 | 82 | 1016 | 10 | O/SO 20.3 | |
| Oggi h: 13:00 | Pioviggine | 17 | 15 | 88 | 1016 | 10 | O/SO 24 | |
| Oggi h: 12:30 | Coperto | 19 | 15 | 77 | 1015 | 10 | O/SO 27.8 | |
| Oggi h: 12:00 | Coperto | 18 | 14 | 77 | 1015 | 10 | O/SO 37 | |
| Oggi h: 11:30 | Molto Nuvoloso | 18 | 14 | 77 | 1014 | 10 | O/SO 29.6 | |
| Oggi h: 11:00 | Pioggia | 17 | 14 | 82 | 1014 | 10 | O/SO 27.8 | |
| Oggi h: 10:30 | Coperto | 18 | 14 | 77 | 1014 | 10 | SO 31.5 | |
| Oggi h: 10:00 | Molto Nuvoloso | 17 | 15 | 88 | 1014 | 10 | SO 29.6 | |
| Oggi h: 09:30 | Molto Nuvoloso | 16 | 14 | 87 | 1013 | 10 | SO 25.9 | |
| Oggi h: 09:00 | Molto Nuvoloso | 15 | 14 | 93 | 1013 | 10 | SO 18.5 | |
| Oggi h: 08:30 | Molto Nuvoloso | 15 | 14 | 93 | 1013 | 10 | SO 22.2 | |
| Oggi h: 08:00 | Coperto | 15 | 14 | 93 | 1013 | 10 | SO 18.5 | |
| Oggi h: 07:30 | Coperto | 15 | 14 | 93 | 1012 | 10 | SO 24 | |
| Oggi h: 07:00 | Pioviggine | 16 | 13 | 82 | 1012 | 9 | SO 27.8 | |
| Oggi h: 06:30 | Coperto | 16 | 13 | 82 | 1012 | 10 | S/SO 27.8 | |
| Oggi h: 06:00 | Molto Nuvoloso | 16 | 13 | 82 | 1011 | 10 | S/SO 24 | |
| Oggi h: 05:30 | Poco Nuvoloso | 16 | 13 | 82 | 1012 | 10 | S/SO 27.8 | |
| Oggi h: 05:00 | Coperto | 16 | 13 | 82 | 1011 | 10 | S/SO 27.8 | |
| Oggi h: 04:30 | Coperto | 16 | 13 | 82 | 1012 | 10 | S/SO 27.8 | |
| Oggi h: 04:00 | Poco Nuvoloso | 16 | 13 | 82 | 1011 | 10 | S/SO 27.8 | |
| Oggi h: 03:30 | Sereno | 16 | 13 | 82 | 1011 | 10 | S/SO 27.8 | |
| Oggi h: 03:00 | Sereno | 16 | 14 | 87 | 1012 | 10 | S/SO 22.2 | |
| Oggi h: 02:30 | Sereno | 16 | 14 | 87 | 1012 | 10 | S/SO 24 | |
| Oggi h: 02:00 | Poco Nuvoloso | 16 | 14 | 87 | 1012 | 10 | S/SO 22.2 | |
| Oggi h: 01:30 | Poco Nuvoloso | 16 | 13 | 82 | 1012 | 10 | S/SO 24 | |
| Oggi h: 01:00 | Sereno | 16 | 13 | 82 | 1012 | 10 | S/SO 18.5 | |
| Oggi h: 00:30 | Sereno | 16 | 13 | 82 | 1012 | 10 | S/SO 24 | |
| Oggi h: 00:00 | Sereno | 16 | 14 | 87 | 1012 | 10 | S/SO 20.3 | |
| Ieri h: 23:30 | Sereno | 16 | 14 | 87 | 1012 | 10 | S/SO 18.5 | |
| Ieri h: 23:00 | Sereno | 17 | 14 | 82 | 1012 | 10 | SO 20.3 | |
| Ieri h: 22:30 | Sereno | 17 | 14 | 82 | 1012 | 10 | SO 25.9 | |
| Ieri h: 22:00 | Sereno | 17 | 15 | 88 | 1012 | 10 | S/SO 14.8 | |
| Ieri h: 21:30 | Pioggia | 18 | 15 | 82 | 1012 | 10 | S/SO 44.4 | |
| Ieri h: 21:00 | Sereno | 18 | 14 | 77 | 1011 | 10 | S 13 | |
| Ieri h: 20:30 | Sereno | 18 | 14 | 77 | 1011 | 10 | S/SO 9.3 | |
| Ieri h: 20:00 | Nuvoloso | 20 | 15 | 72 | 1011 | 10 | S 7.4 | |
| Ieri h: 19:30 | Sereno | 20 | 15 | 72 | 1011 | 10 | O/SO 11.1 | |
| Ieri h: 19:00 | Sereno | 20 | 16 | 77 | 1012 | 10 | O/SO 13 | |
| Ieri h: 18:30 | Pioggia | 20 | 15 | 72 | 1012 | 10 | SO 24 | |
| Ieri h: 18:00 | Coperto | 21 | 14 | 64 | 1012 | 10 | S/SO 24 | |



